Terminal Aerodrome Forecast
Issued by NWS St Louis, MO

Home | Current Version | Previous Version | Graphics & Text | Print | Product List | Glossary On
Versions: 1 2 3 4 5 6 7 8 9 10 11 12 13 14 15 16 17 18 19 20 21 22 23 24 25 26 27 28
000
FTUS43 KLSX 281700
TAFSTL
TAF
KSTL 281726Z 2818/0124 11009KT P6SM OVC045
     FM282000 11007KT 3SM -SN OVC025
     FM282300 11005KT 1SM -SN OVC008
     FM011200 27004KT 3SM -SN BR OVC008
     FM011800 34005KT 6SM -SN OVC015=

USA.gov is the U.S. government's official web portal to all federal, state and local government web resources and services.